Flag for Germany Weather past 2 weeks in Konstanz, Baden-Württemberg, Germany

Now
64 °F

Overcast.


Feels Like: 64 °F
Forecast: 51 / 84 °F
Wind: 1 mph from West

Location: Konstanz

Current Time: Aug 2, 2015 at 2:51:50 AM

Latest Report: Aug 2, 2015 at 1:00 AM


Visibility: 13 mi

Pressure: 30.05 "Hg

Humidity: 80%

Dew point: 58 °F

Location of KonstanzLocation

Historic Weather in Konstanz — Graph

°F

Konstanz temperature yesterday

Maximum temperature yesterday: 68 °F (at 4:00 PM)
Minimum temperature yesterday: 58 °F (at 9:00 AM)
Average temperature yesterday: 63 °F

Past Weeks' High & Low Weather Summary

 TemperatureHumidityPressure
High95 °F (Jul 22, 5:00 PM)97% (Jul 30, 7:00 AM)30.14 "Hg (Jul 30, 7:00 AM)
Low51 °F (Jul 30, 5:00 AM)22% (Jul 22, 5:00 PM)29.66 "Hg (Jul 24, 7:00 PM)
Average70 °F64%29.92 "Hg
* Reported Jul 18 1:00 AM — Aug 2 1:00 AM, Konstanz, Weather by CustomWeather, © 2015

Note: Actual official high and low records may vary slightly from our data, if they occured in-between our weather recording intervals... More about our weather records

Advertising

Konstanz weather history for previous 24 hours

 ConditionsComfort  
Time TempWeatherWind HumidityBarometerVisibility
1:00 AM
Sun, Aug 2
64 °FOvercast.1 mph80%30.05 "Hg13 mi
11:00 PM
Sat, Aug 1
65 °FOvercast.1 mph80%30.03 "Hg17 mi
10:00 PM65 °FOvercast.2 mph78%30.02 "Hg19 mi
8:00 PM66 °FOvercast.2 mph72%29.99 "Hg25 mi
7:00 PM66 °FOvercast.1 mph70%29.98 "Hg25 mi
6:00 PM67 °FOvercast.1 mph69%29.97 "Hg25 mi
5:00 PM67 °FOvercast.2 mph69%29.97 "Hg22 mi
4:00 PM68 °FOvercast.2 mph66%29.96 "Hg22 mi
3:00 PM66 °FOvercast.1 mph70%29.98 "Hg22 mi
2:00 PM63 °FOvercast.1 mph80%29.99 "Hg22 mi
1:00 PM62 °FOvercast.1 mph77%30.01 "Hg22 mi
12:00 PM60 °FLight rain. Overcast.2 mph83%30.02 "Hg19 mi
11:00 AM59 °FLight rain. Overcast.2 mph89%30.02 "Hg11 mi
10:00 AM58 °FOvercast.1 mph91%30.02 "Hg4 mi
9:00 AM58 °FLight rain. Overcast.5 mph87%30.01 "Hg11 mi
8:00 AM59 °FLight rain. Overcast.2 mph78%29.96 "Hg11 mi
7:00 AM60 °FLight rain. Overcast.2 mph71%29.92 "Hg16 mi
5:00 AM61 °FOvercast.1 mph63%29.88 "Hg43 mi
4:00 AM61 °FPassing clouds.2 mph65%29.89 "Hg43 mi
3:00 AM61 °FPassing clouds.1 mph66%29.90 "Hg37 mi
2:00 AM64 °FPassing clouds.2 mph60%29.89 "Hg43 mi
Weather by CustomWeather, © 2015

See weather overviewHow to use our weather pages